|
NORAD ID: 10820 Int'l Code: 1978-042A
Perigee: 777.9 km
Apogee: 793.2 km
Inclination: 98.5 °
Period: 100.4 minutes
Semi major axis: 7156 km
Launch date: May 1, 1978
Source: United States (US)
Two Line Element Set (TLE):
1 10820U 78042A 13140.11423942 .00000391 00000-0 15558-3 0 4037
2 10820 098.5363 321.9639 0010671 133.1091 005.8218 14.33986650827841
Source:
NASA's NSSDC Master Catalog entry for OPS 6182 (DMSP 5D-1 F2)
|